map of VCP home
Great Circle Mapper logo
VCP - Airport
Location
City:  Campinas, São Paulo, Brazil
Near (Alt.):São Paulo
Name:Viracopos-Campinas International Airport
ICAO:SBKP
IATA:VCP

Details
Type:Airport (Aerodrome, Airfield)
Use:Public/Civil, International (customs port of entry)
Latitude:23°00'27"S (-23.007382)
Longitude:47°08'04"W (-47.134521)
Datum:WGS 1984
Elevation:2170 ft (661 m)
Variation:21.05°W (WMM2015 magnetic declination)
-0.12° annual change
Runways:1
Longest:10630 × 148 ft (3240 × 45 m), paved

Time
Time Zone:UTC-3 (DST-2)
Local Time:

Weather
METAR:SBKP 271000Z 13007KT CAVOK 13/10 Q1020
TAF:SBKP 270200Z 2706/2806 14012KT CAVOK TN12/2708Z TX26/2718Z
BECMG 2712/2714 9999 FEW040
BECMG 2718/2720 CAVOK
RMK PGH

Related Locations
Nearby:
Farthest:MMD: 12213 mi / 19655 km
Minamidaito [Minami Daito Airport], Minamidaito Jima, 47, JP

Find:

   beyond  
but within

Other Information
Maps:
NOTAMs:
Links:
Sources:

  
flag of Brazil
flag of São Paulo
  

Sectional Chart

Flight Planning
at skyvector.com

Satellite Image

Google Maps Satellite view

 

Copyright © 2004-2016 Karl L. Swartz. All rights reserved.
The Great Circle Mapper name and logo are trademarks of the Great Circle Mapper.
All other trademarks mentioned herein belong to their respective owners.
Please see credits for attibutions and further copyright information.

  Follow gcmap on Facebook Follow gcmap on Twitter Follow gcmap on Google+ GCmap on LinkedIn

hCard Microformat

Geo Microformat